Litchfield, MN

9:18 PM CST on December 11, 2019 (GMT -0600)
Litchfield Municipal

Weather History for KLJF - November, 2019

Change the Weather History Date:

Tuesday, November 19, 2019

  Actual Average Record
Temperature  
Mean Temperature 38 °F -  
Max Temperature 44 °F 38 °F 58 °F (1975)
Min Temperature 33 °F 22 °F 3 °F (1969)
Degree Days  
Heating Degree Days 26    
Moisture  
Dew Point 37 °F    
Average Humidity 95    
Maximum Humidity 100    
Minimum Humidity 81    
Precipitation  
Precipitation 0.00 in - - ()
Sea Level Pressure  
Sea Level Pressure 29.81 in    
Wind  
Wind Speed 4 mph ()    
Max Wind Speed 14 mph    
Max Gust Speed 20 mph    
Visibility 8.3 miles    
Events      
Averages and records for this station are not official NWS values.
T = Trace of Precipitation, MM = Missing Value Source: Averaged Metar Reports

Daily Weather History Graph

Daily Weather History Graph

Search for Another Location

Airport or City:

Astronomy

Nov. 19, 2019 Rise Set
Actual Time 7:21 AM CST 4:45 PM CST
Civil Twilight 6:48 AM CST 5:17 PM CST
Nautical Twilight 6:12 AM CST 5:53 PM CST
Astronomical Twilight 5:38 AM CST 6:28 PM CST
Moon 11:45 PM CST (11/19) 1:30 PM CST (11/19)
Length of Visible Light 10h 28m
Length of Day
9h 24m
Waning Gibbous, 51% of the Moon is Illuminated
Nov 19
Waning Gibbous
Nov 19
Last Quarter
Nov 26
New
Dec 4
First Quarter
Dec 11
Full

Hourly Weather History & Observations

Time (CST) Temp. Windchill Dew Point Humidity Pressure Visibility Wind Dir Wind Speed Gust Speed Precip Events Conditions
12:15 AM 35.6 °F - 35.6 °F 100% 29.67 in 2.5 mi Calm Calm - N/A   Mist
12:16 AM 35.6 °F - 35.6 °F 100% 29.67 in 2.5 mi Calm Calm - N/A   Mist
12:35 AM 35.6 °F - 35.6 °F 100% 29.67 in 2.5 mi Calm Calm - N/A   Mist
12:58 AM 37.4 °F - 37.4 °F 100% 29.67 in 3.0 mi Calm Calm - N/A   Mist
1:15 AM 37.4 °F - 37.4 °F 100% 29.66 in 3.0 mi Calm Calm - N/A   Mist
1:35 AM 37.4 °F 33.8 °F 37.4 °F 100% 29.67 in 3.0 mi WSW 4.6 mph - N/A   Mist
1:55 AM 37.4 °F 34.9 °F 37.4 °F 100% 29.66 in 3.0 mi WSW 3.5 mph - N/A   Mist
1:56 AM 37.4 °F 34.9 °F 37.4 °F 100% 29.66 in 3.0 mi WSW 3.5 mph - N/A   Mist
2:18 AM 37.4 °F 34.9 °F 37.4 °F 100% 29.67 in 1.2 mi WSW 3.5 mph - N/A   Mist
2:36 AM 37.4 °F 32.8 °F 37.4 °F 100% 29.67 in 0.8 mi West 5.8 mph - N/A   Mist
2:55 AM 37.4 °F 32.8 °F 37.4 °F 100% 29.67 in 1.0 mi West 5.8 mph - N/A   Mist
2:56 AM 37.4 °F 32.8 °F 37.4 °F 100% 29.67 in 1.0 mi West 5.8 mph - N/A   Mist
3:15 AM 37.4 °F 31.4 °F 37.4 °F 100% 29.67 in 1.8 mi West 8.1 mph - N/A   Mist
3:16 AM 37.4 °F 30.8 °F 37.4 °F 100% 29.67 in 1.8 mi West 9.2 mph - N/A   Mist
3:35 AM 37.4 °F 30.8 °F 37.4 °F 100% 29.68 in 1.2 mi West 9.2 mph - N/A   Mist
3:57 AM 35.6 °F 29.9 °F 35.6 °F 100% 29.68 in 1.5 mi WNW 6.9 mph - N/A   Mist
4:15 AM 35.6 °F 29.9 °F 35.6 °F 100% 29.68 in 1.5 mi WNW 6.9 mph - N/A   Mist
4:35 AM 35.6 °F 31.7 °F 35.6 °F 100% 29.69 in 4.0 mi West 4.6 mph - N/A   Mist
4:36 AM 35.6 °F 31.7 °F 35.6 °F 100% 29.69 in 4.0 mi West 4.6 mph - N/A   Mist
4:55 AM 33.8 °F - 33.8 °F 100% 29.69 in 5.0 mi Calm Calm - N/A   Mist
4:56 AM 33.8 °F - 33.8 °F 100% 29.69 in 5.0 mi Calm Calm - N/A   Mist
5:55 AM 33.8 °F 29.6 °F 33.8 °F 100% 29.71 in 10.0 mi WNW 4.6 mph - N/A   Unknown
6:15 AM 33.8 °F 29.6 °F 33.8 °F 100% 29.71 in 10.0 mi West 4.6 mph - N/A   Unknown
6:16 AM 33.8 °F 28.6 °F 33.8 °F 100% 29.71 in 10.0 mi West 5.8 mph - N/A   Unknown
6:35 AM 35.6 °F 31.7 °F 35.6 °F 100% 29.71 in 10.0 mi West 4.6 mph - N/A   Unknown
6:40 AM 35.6 °F 31.7 °F 35.6 °F 100% 29.71 in 10.0 mi WNW 4.6 mph - N/A   Unknown
6:57 AM 35.6 °F - 35.6 °F 100% 29.72 in 10.0 mi Calm Calm - N/A   Unknown
7:15 AM 35.6 °F 29.9 °F 35.6 °F 100% 29.73 in 10.0 mi West 6.9 mph - N/A   Unknown
7:35 AM 35.6 °F 29.9 °F 35.6 °F 100% 29.73 in 10.0 mi West 6.9 mph - N/A   Unknown
7:36 AM 35.6 °F 29.9 °F 35.6 °F 100% 29.73 in 10.0 mi West 6.9 mph - N/A   Unknown
7:55 AM 35.6 °F 30.7 °F 35.6 °F 100% 29.74 in 10.0 mi WNW 5.8 mph - N/A   Unknown
7:56 AM 35.6 °F 30.7 °F 35.6 °F 100% 29.74 in 10.0 mi WNW 5.8 mph - N/A   Unknown
8:19 AM 35.6 °F 29.2 °F 35.6 °F 100% 29.75 in 10.0 mi WNW 8.1 mph - N/A   Unknown
8:37 AM 35.6 °F 29.9 °F 35.6 °F 100% 29.76 in 10.0 mi WNW 6.9 mph - N/A   Unknown
8:56 AM 35.6 °F 28.6 °F 35.6 °F 100% 29.76 in 10.0 mi WNW 9.2 mph - N/A   Unknown
9:15 AM 35.6 °F 29.9 °F 35.6 °F 100% 29.77 in 10.0 mi West 6.9 mph - N/A   Unknown
9:16 AM 35.6 °F 29.2 °F 35.6 °F 100% 29.77 in 10.0 mi WNW 8.1 mph - N/A   Unknown
9:35 AM 37.4 °F 31.4 °F 37.4 °F 100% 29.78 in 10.0 mi West 8.1 mph - N/A   Unknown
9:57 AM 37.4 °F 32.1 °F 37.4 °F 100% 29.79 in 10.0 mi West 6.9 mph - N/A   Unknown
10:16 AM 37.4 °F 31.4 °F 37.4 °F 100% 29.79 in 10.0 mi West 8.1 mph - N/A   Unknown
10:35 AM 37.4 °F 30.8 °F 37.4 °F 100% 29.80 in 10.0 mi West 9.2 mph - N/A   Unknown
10:55 AM 39.2 °F 33.0 °F 39.2 °F 100% 29.80 in 10.0 mi WNW 9.2 mph - N/A   Unknown
11:18 AM 39.2 °F 32.5 °F 39.2 °F 100% 29.81 in 10.0 mi WNW 10.4 mph - N/A   Unknown
11:36 AM 41.0 °F 34.7 °F 39.2 °F 93% 29.81 in 10.0 mi WNW 10.4 mph - N/A   Unknown
11:56 AM 41.0 °F 35.2 °F 39.2 °F 93% 29.81 in 10.0 mi WNW 9.2 mph - N/A   Unknown
12:15 PM 42.8 °F 37.0 °F 39.2 °F 87% 29.82 in 10.0 mi West 10.4 mph - N/A   Unknown
12:16 PM 42.8 °F 37.5 °F 39.2 °F 87% 29.82 in 10.0 mi West 9.2 mph - N/A   Unknown
12:35 PM 42.8 °F 37.5 °F 39.2 °F 87% 29.82 in 10.0 mi WNW 9.2 mph - N/A   Unknown
12:39 PM 42.8 °F 37.0 °F 39.2 °F 87% 29.82 in 10.0 mi West 10.4 mph - N/A   Unknown
12:58 PM 42.8 °F 37.0 °F 39.2 °F 87% 29.83 in 10.0 mi WNW 10.4 mph - N/A   Unknown
1:16 PM 44.6 °F 40.2 °F 41.0 °F 87% 29.83 in 10.0 mi WNW 8.1 mph - N/A   Unknown
1:35 PM 44.6 °F 39.2 °F 39.2 °F 81% 29.84 in 10.0 mi WNW 10.4 mph - N/A   Unknown
1:55 PM 42.8 °F 36.6 °F 39.2 °F 87% 29.85 in 10.0 mi WNW 11.5 mph - N/A   Unknown
1:59 PM 42.8 °F 36.6 °F 39.2 °F 87% 29.85 in 10.0 mi WNW 11.5 mph - N/A   Unknown
2:16 PM 42.8 °F 35.8 °F 39.2 °F 87% 29.85 in 10.0 mi WNW 13.8 mph 19.6 mph N/A   Unknown
2:40 PM 42.8 °F 37.5 °F 39.2 °F 87% 29.86 in 10.0 mi NW 9.2 mph - N/A   Unknown
2:55 PM 41.0 °F 35.8 °F 39.2 °F 93% 29.86 in 10.0 mi NW 8.1 mph - N/A   Unknown
2:56 PM 41.0 °F 35.8 °F 39.2 °F 93% 29.86 in 10.0 mi NW 8.1 mph - N/A   Unknown
3:15 PM 41.0 °F 35.8 °F 37.4 °F 87% 29.86 in 10.0 mi WNW 8.1 mph - N/A   Unknown
3:16 PM 41.0 °F 35.8 °F 37.4 °F 87% 29.86 in 10.0 mi WNW 8.1 mph - N/A   Unknown
3:35 PM 41.0 °F 35.8 °F 37.4 °F 87% 29.87 in 10.0 mi WNW 8.1 mph - N/A   Unknown
3:55 PM 41.0 °F 35.2 °F 37.4 °F 87% 29.87 in 10.0 mi NW 9.2 mph - N/A   Unknown
3:56 PM 41.0 °F 34.7 °F 37.4 °F 87% 29.87 in 10.0 mi NNW 10.4 mph - N/A   Unknown
4:15 PM 41.0 °F 36.4 °F 37.4 °F 87% 29.87 in 10.0 mi WNW 6.9 mph - N/A   Unknown
4:35 PM 41.0 °F 38.0 °F 37.4 °F 87% 29.88 in 10.0 mi WNW 4.6 mph - N/A   Unknown
4:55 PM 41.0 °F 37.1 °F 37.4 °F 87% 29.88 in 10.0 mi NNW 5.8 mph - N/A   Unknown
4:56 PM 41.0 °F 37.1 °F 37.4 °F 87% 29.88 in 10.0 mi NNW 5.8 mph - N/A   Unknown
5:35 PM 41.0 °F - 37.4 °F 87% 29.90 in 10.0 mi Calm Calm - N/A   Unknown
5:55 PM 41.0 °F 39.0 °F 37.4 °F 87% 29.90 in 10.0 mi WNW 3.5 mph - N/A   Unknown
6:15 PM 39.2 °F - 37.4 °F 93% 29.90 in 10.0 mi Calm Calm - N/A   Unknown
6:35 PM 39.2 °F 35.9 °F 37.4 °F 93% 29.91 in 10.0 mi WNW 4.6 mph - N/A   Unknown
6:36 PM 39.2 °F 35.9 °F 37.4 °F 93% 29.91 in 10.0 mi WNW 4.6 mph - N/A   Unknown
6:55 PM 39.2 °F - 37.4 °F 93% 29.92 in 10.0 mi Calm Calm - N/A   Unknown
7:15 PM 39.2 °F 37.0 °F 37.4 °F 93% 29.93 in 10.0 mi WNW 3.5 mph - N/A   Unknown
7:16 PM 39.2 °F 37.0 °F 37.4 °F 93% 29.93 in 10.0 mi NW 3.5 mph - N/A   Unknown
7:35 PM 39.2 °F 37.0 °F 37.4 °F 93% 29.94 in 10.0 mi West 3.5 mph - N/A   Unknown
7:55 PM 39.2 °F - 37.4 °F 93% 29.94 in 10.0 mi Calm Calm - N/A   Unknown
7:56 PM 39.2 °F 37.0 °F 37.4 °F 93% 29.94 in 10.0 mi WNW 3.5 mph - N/A   Unknown
8:15 PM 39.2 °F - 37.4 °F 93% 29.94 in 10.0 mi Calm Calm - N/A   Unknown
8:35 PM 39.2 °F - 37.4 °F 93% 29.94 in 10.0 mi Calm Calm - N/A   Unknown
8:55 PM 39.2 °F - 37.4 °F 93% 29.96 in 10.0 mi Calm Calm - N/A   Unknown
9:16 PM 37.4 °F - 37.4 °F 100% 29.96 in 10.0 mi Calm Calm - N/A   Unknown
9:35 PM 37.4 °F - 37.4 °F 100% 29.96 in 10.0 mi Calm Calm - N/A   Unknown
9:36 PM 39.2 °F - 37.4 °F 93% 29.96 in 10.0 mi Calm Calm - N/A   Unknown
9:55 PM 37.4 °F - 37.4 °F 100% 29.95 in 10.0 mi Calm Calm - N/A   Unknown
9:56 PM 37.4 °F - 37.4 °F 100% 29.95 in 10.0 mi Calm Calm - N/A   Unknown
10:15 PM 37.4 °F - 37.4 °F 100% 29.96 in 10.0 mi Calm Calm - N/A   Unknown
10:35 PM 37.4 °F - 37.4 °F 100% 29.97 in 10.0 mi Calm Calm - N/A   Unknown
10:36 PM 37.4 °F - 37.4 °F 100% 29.97 in 10.0 mi Calm Calm - N/A   Unknown
10:55 PM 37.4 °F - 37.4 °F 100% 29.97 in 10.0 mi Calm Calm - N/A   Unknown
10:56 PM 37.4 °F - 37.4 °F 100% 29.97 in 10.0 mi Calm Calm - N/A   Unknown
11:15 PM 37.4 °F - 37.4 °F 100% 29.97 in 10.0 mi Calm Calm - N/A   Unknown
11:35 PM 37.4 °F - 35.6 °F 93% 29.98 in 10.0 mi Calm Calm - N/A   Unknown
11:55 PM 37.4 °F - 35.6 °F 93% 29.99 in 10.0 mi Calm Calm - N/A   Unknown